• In Netherlands
  • List of Countries
  • For 7 days
  • Water Temperature
  • Satellite Maps
  • Weather Map
  • Weather Widgets
  • user-avatar
    Login

    Hourly Weather Brisbane

    Today, 24 November, Friday

    Time Temperature Precipitation Wind Pressure Humidity
    00:00 +19°C° 0 mm 2 mps 760 mmHg 87%
    01:00 +19°C° 0 mm 2 mps 760 mmHg 89%
    02:00 +19°C° 0 mm 2 mps 760 mmHg 89%
    03:00 +18°C° 0 mm 2 mps 760 mmHg 90%
    04:00 +18°C° 0 mm 2 mps 760 mmHg 91%
    05:00 +19°C° 0 mm 2 mps 760 mmHg 85%
    06:00 +21°C° 0 mm 2 mps 760 mmHg 80%
    07:00 +23°C° 0 mm 2 mps 760 mmHg 74%
    08:00 +25°C° 0 mm 3 mps 760 mmHg 65%
    09:00 +28°C° 0 mm 3 mps 760 mmHg 55%
    10:00 +29°C° 0 mm 3 mps 760 mmHg 49%
    11:00 +30°C° 0 mm 4 mps 760 mmHg 47%
    12:00 +32°C° 0 mm 4 mps 759 mmHg 45%
    13:00 +32°C° 0 mm 4 mps 759 mmHg 42%
    14:00 +30°C° 0.1 mm 5 mps 759 mmHg 47%
    15:00 +30°C° 0.1 mm 5 mps 759 mmHg 51%
    16:00 +29°C° 0 mm 5 mps 759 mmHg 54%
    17:00 +27°C° 0.1 mm 4 mps 759 mmHg 62%
    18:00 +25°C° 0.1 mm 4 mps 759 mmHg 71%
    19:00 +24°C° 0.1 mm 3 mps 760 mmHg 79%
    20:00 +22°C° 0.1 mm 3 mps 760 mmHg 83%
    21:00 +22°C° 0.1 mm 3 mps 760 mmHg 86%
    22:00 +21°C° 0.1 mm 3 mps 760 mmHg 90%
    23:00 +21°C° 0.2 mm 3 mps 760 mmHg 91%

    Tomorrow, 25 November, Saturday

    Time Temperature Precipitation Wind Pressure Humidity
    00:00 +20°C° 0.2 mm 3 mps 760 mmHg 92%
    01:00 +20°C° 0.2 mm 3 mps 760 mmHg 92%
    02:00 +20°C° 0.1 mm 3 mps 760 mmHg 92%
    03:00 +20°C° 0.1 mm 3 mps 760 mmHg 92%
    04:00 +20°C° 0.1 mm 3 mps 759 mmHg 92%
    05:00 +21°C° 0 mm 3 mps 760 mmHg 87%
    06:00 +22°C° 0 mm 3 mps 760 mmHg 82%
    07:00 +23°C° 0 mm 4 mps 760 mmHg 77%
    08:00 +26°C° 0 mm 4 mps 760 mmHg 69%
    09:00 +28°C° 0 mm 4 mps 760 mmHg 60%
    10:00 +30°C° 0 mm 4 mps 760 mmHg 52%
    11:00 +30°C° 0.4 mm 4 mps 759 mmHg 52%
    12:00 +30°C° 0.4 mm 5 mps 759 mmHg 53%
    13:00 +30°C° 0.4 mm 5 mps 759 mmHg 53%
    14:00 +30°C° 0.1 mm 5 mps 758 mmHg 54%
    15:00 +30°C° 0.1 mm 5 mps 758 mmHg 55%
    16:00 +29°C° 0.1 mm 5 mps 758 mmHg 56%
    17:00 +28°C° 0 mm 5 mps 758 mmHg 64%
    18:00 +26°C° 0 mm 4 mps 759 mmHg 71%
    19:00 +25°C° 0 mm 4 mps 759 mmHg 79%
    20:00 +24°C° 0.1 mm 3 mps 759 mmHg 82%
    21:00 +22°C° 0.1 mm 3 mps 760 mmHg 86%
    22:00 +22°C° 0.1 mm 3 mps 760 mmHg 89%
    23:00 +22°C° 0.2 mm 3 mps 760 mmHg 90%

    Day after tomorrow, 26 November, Sunday

    Time Temperature Precipitation Wind Pressure Humidity
    00:00 +21°C° 0.2 mm 2 mps 760 mmHg 91%
    01:00 +21°C° 0.2 mm 2 mps 759 mmHg 92%
    02:00 +21°C° 0 mm 2 mps 759 mmHg 92%
    03:00 +21°C° 0 mm 2 mps 759 mmHg 92%
    04:00 +21°C° 0 mm 2 mps 759 mmHg 92%
    05:00 +22°C° 0 mm 3 mps 759 mmHg 88%
    06:00 +24°C° 0 mm 3 mps 759 mmHg 83%
    07:00 +25°C° 0 mm 3 mps 759 mmHg 79%
    08:00 +26°C° 0.1 mm 3 mps 760 mmHg 72%
    09:00 +28°C° 0.1 mm 3 mps 760 mmHg 64%
    10:00 +29°C° 0.1 mm 3 mps 760 mmHg 57%
    11:00 +30°C° 0.2 mm 3 mps 759 mmHg 56%
    12:00 +30°C° 0.2 mm 4 mps 759 mmHg 55%
    13:00 +32°C° 0.2 mm 4 mps 759 mmHg 54%
    14:00 +30°C° 0.1 mm 4 mps 758 mmHg 56%
    15:00 +30°C° 0.1 mm 4 mps 758 mmHg 57%
    16:00 +29°C° 0.1 mm 4 mps 758 mmHg 59%
    17:00 +28°C° 0 mm 4 mps 758 mmHg 66%
    18:00 +26°C° 0 mm 4 mps 759 mmHg 74%
    19:00 +25°C° 0 mm 3 mps 759 mmHg 81%
    20:00 +24°C° 0 mm 3 mps 759 mmHg 84%
    21:00 +22°C° 0 mm 3 mps 760 mmHg 87%
    22:00 +22°C° 0 mm 3 mps 760 mmHg 90%
    23:00 +22°C° 0 mm 3 mps 760 mmHg 91%

    27 November, Monday

    Time Temperature Precipitation Wind Pressure Humidity
    00:00 +21°C° 0 mm 3 mps 759 mmHg 91%
    01:00 +21°C° 0 mm 3 mps 759 mmHg 92%
    02:00 +21°C° 0 mm 3 mps 758 mmHg 92%
    03:00 +21°C° 0 mm 3 mps 758 mmHg 92%
    04:00 +21°C° 0 mm 3 mps 758 mmHg 92%
    05:00 +22°C° 0 mm 3 mps 759 mmHg 87%
    06:00 +24°C° 0 mm 3 mps 759 mmHg 82%
    07:00 +25°C° 0 mm 3 mps 759 mmHg 76%
    08:00 +26°C° 0 mm 3 mps 759 mmHg 71%
    09:00 +27°C° 0 mm 3 mps 760 mmHg 65%
    10:00 +28°C° 0 mm 3 mps 760 mmHg 59%
    11:00 +29°C° 0 mm 4 mps 759 mmHg 55%
    12:00 +30°C° 0 mm 4 mps 759 mmHg 52%
    13:00 +32°C° 0 mm 4 mps 758 mmHg 49%
    14:00 +32°C° 0 mm 4 mps 758 mmHg 52%
    15:00 +30°C° 0 mm 5 mps 758 mmHg 55%
    16:00 +29°C° 0 mm 5 mps 758 mmHg 58%
    17:00 +28°C° 0 mm 4 mps 758 mmHg 66%
    18:00 +26°C° 0 mm 4 mps 759 mmHg 75%
    19:00 +25°C° 0 mm 3 mps 760 mmHg 83%
    20:00 +24°C° 0.1 mm 3 mps 760 mmHg 86%
    21:00 +24°C° 0.1 mm 3 mps 760 mmHg 89%
    22:00 +22°C° 0.1 mm 3 mps 761 mmHg 91%
    23:00 +22°C° 0.2 mm 3 mps 760 mmHg 92%

    28 November, Tuesday

    Time Temperature Precipitation Wind Pressure Humidity
    00:00 +22°C° 0.2 mm 3 mps 760 mmHg 92%
    01:00 +23°C° 0.2 mm 2 mps 760 mmHg 92%
    02:00 +23°C° 0.2 mm 2 mps 760 mmHg 93%
    03:00 +23°C° 0.2 mm 2 mps 760 mmHg 93%
    04:00 +23°C° 0.2 mm 2 mps 760 mmHg 93%
    05:00 +24°C° 0.3 mm 3 mps 760 mmHg 90%
    06:00 +25°C° 0.3 mm 3 mps 761 mmHg 86%
    07:00 +25°C° 0.3 mm 3 mps 761 mmHg 82%
    08:00 +27°C° 0.3 mm 3 mps 761 mmHg 76%
    09:00 +28°C° 0.3 mm 4 mps 761 mmHg 70%
    10:00 +29°C° 0.3 mm 4 mps 761 mmHg 64%
    11:00 +29°C° 0.4 mm 4 mps 760 mmHg 63%
    12:00 +30°C° 0.4 mm 5 mps 760 mmHg 62%
    13:00 +30°C° 0.4 mm 5 mps 759 mmHg 61%
    14:00 +29°C° 0.1 mm 5 mps 759 mmHg 63%
    15:00 +29°C° 0.1 mm 5 mps 759 mmHg 64%
    16:00 +29°C° 0.1 mm 5 mps 759 mmHg 65%
    17:00 +27°C° 0 mm 4 mps 760 mmHg 72%
    18:00 +26°C° 0 mm 4 mps 761 mmHg 78%
    19:00 +24°C° 0 mm 3 mps 762 mmHg 85%
    20:00 +24°C° 0 mm 3 mps 762 mmHg 87%
    21:00 +24°C° 0 mm 3 mps 762 mmHg 89%
    22:00 +23°C° 0 mm 2 mps 763 mmHg 91%
    23:00 +23°C° 0 mm 2 mps 762 mmHg 92%

    29 November, Wednesday

    Time Temperature Precipitation Wind Pressure Humidity
    00:00 +23°C° 0 mm 2 mps 762 mmHg 93%
    01:00 +23°C° 0 mm 2 mps 761 mmHg 93%
    02:00 +21°C° 0.1 mm 2 mps 761 mmHg 93%
    03:00 +21°C° 0.1 mm 2 mps 761 mmHg 93%
    04:00 +21°C° 0.1 mm 2 mps 761 mmHg 93%
    05:00 +23°C° 0.1 mm 2 mps 762 mmHg 89%
    06:00 +24°C° 0.1 mm 3 mps 762 mmHg 85%
    07:00 +25°C° 0.1 mm 3 mps 762 mmHg 82%
    08:00 +26°C° 0.1 mm 3 mps 762 mmHg 73%
    09:00 +28°C° 0.1 mm 3 mps 762 mmHg 65%
    10:00 +29°C° 0.1 mm 3 mps 762 mmHg 56%
    11:00 +30°C° 0 mm 4 mps 761 mmHg 54%
    12:00 +30°C° 0 mm 4 mps 761 mmHg 52%
    13:00 +32°C° 0 mm 4 mps 760 mmHg 50%
    14:00 +30°C° 0 mm 4 mps 760 mmHg 52%
    15:00 +29°C° 0 mm 4 mps 760 mmHg 55%
    16:00 +29°C° 0 mm 4 mps 760 mmHg 57%
    17:00 +28°C° 0 mm 4 mps 760 mmHg 64%
    18:00 +26°C° 0 mm 3 mps 761 mmHg 71%
    19:00 +25°C° 0 mm 3 mps 761 mmHg 78%
    20:00 +24°C° 0.1 mm 3 mps 762 mmHg 81%
    21:00 +24°C° 0.1 mm 3 mps 762 mmHg 85%
    22:00 +22°C° 0.1 mm 3 mps 762 mmHg 88%
    23:00 +22°C° 0.1 mm 3 mps 762 mmHg 89%
    Show more